Location: Gull Harbor
(47.1000°N, 122.9000°W)
Time: 19:17:58
(UTC-08:00)

ISS - Pass Details

Date: 28 October 2019
Orbit: 412 x 421 km, 51.6° (Epoch: 17 November)

Event Time Altitude Azimuth Distance (km) Brightness Sun altitude
Exits shadow 05:27:21 27° 130° (SE) 839 -1.9 -24.5°
Drops below altitude 10° 05:29:58 10° 81° (E) 1,508 0.1 -24.1°
Sets 05:32:15 0° 69° (ENE) 2,381 1.4 -23.7°
